,,Stat1,,Stat2,,Stat3,,Stat4,,Wind1,,Wind1,
time,status,PR1M_SUM,status,RH1M_AVG,status,SR1M_AVG,status,TA1M_AVG,status,W1dAve1m,status,W1sAve1m,
2000-02-29, 00:01:00,VALID,0,VALID,95.5382,VALID,0,VALID,18.4438,VALID,118,VALID,0.781044,
2000-02-29, 00:02:00,VALID,0,VALID,95.6501,VALID,-0.0169808,VALID,18.3758,VALID,113,VALID,0.932432,
2000-02-29, 00:03:00,VALID,0,VALID,96.1956,VALID,-0.0169808,VALID,18.3237,VALID,111,VALID,1.23808,
2000-02-29, 00:04:00,VALID,0,VALID,96.4766,VALID,-0.0169808,VALID,18.2884,VALID,116,VALID,1.08535,
2000-02-29, 00:05:00,VALID,0,VALID,96.8098,VALID,0,VALID,18.2755,VALID,120,VALID,0.930339,
2000-02-29, 00:06:00,VALID,0,VALID,97.1595,VALID,0,VALID,18.2757,VALID,134,VALID,0.935156,
2000-02-29, 00:07:00,VALID,0,VALID,97.4634,VALID,0,VALID,18.2985,VALID,145,VALID,0.572985,
2000-02-29, 00:08:00,VALID,0,VALID,97.6834,VALID,-0.0169808,VALID,18.3276,VALID,175,VALID,0.853824,
2000-02-29, 00:09:00,VALID,0,VALID,97.7076,VALID,0,VALID,18.3631,VALID,175,VALID,0.482227,
2000-02-29, 00:10:01,VALID,0,VALID,97.7177,VALID,0,VALID,18.3758,VALID,206,VALID,0.459535,
2000-02-29, 00:11:00,VALID,0,VALID,97.7076,VALID,-0.0339617,VALID,18.3855,VALID,203,VALID,0.0382401,
2000-02-29, 00:12:00,VALID,0,VALID,97.5728,VALID,-0.0339617,VALID,18.3855,VALID,199,VALID,0.238598,
2000-02-29, 00:13:00,VALID,0,VALID,97.5155,VALID,-0.0339617,VALID,18.3892,VALID,207,VALID,0.755409,
2000-02-29, 00:14:00,VALID,0,VALID,97.3579,VALID,0,VALID,18.3857,VALID,203,VALID,0.636191,
2000-02-29, 00:15:00,VALID,0,VALID,97.2841,VALID,0,VALID,18.3626,VALID,202,VALID,0.544872,
2000-02-29, 00:16:00,VALID,0,VALID,97.4342,VALID,-0.0339617,VALID,18.3659,VALID,205,VALID,0.741787,
2000-02-29, 00:17:00,VALID,0,VALID,97.3668,VALID,0,VALID,18.3659,VALID,214,VALID,0.621951,
2000-02-29, 00:18:00,VALID,0,VALID,97.1493,VALID,0,VALID,18.337,VALID,212,VALID,0.544336,
2000-02-29, 00:19:00,VALID,0,VALID,96.8238,VALID,-0.0169808,VALID,18.2983,VALID,206,VALID,0.715461,
2000-02-29, 00:20:00,VALID,0,VALID,97.0361,VALID,-0.0169808,VALID,18.2791,VALID,205,VALID,0.79043,
2000-02-29, 00:21:00,VALID,0,VALID,97.3502,VALID,-0.0339617,VALID,18.2886,VALID,203,VALID,0.822917,
2000-02-29, 00:22:00,VALID,0,VALID,97.4698,VALID,-0.0339617,VALID,18.2955,VALID,208,VALID,0.955664,
2000-02-29, 00:23:00,VALID,0,VALID,97.6796,VALID,0,VALID,18.3248,VALID,213,VALID,1.02103,
2000-02-29, 00:24:00,VALID,0,VALID,97.6389,VALID,-0.0169808,VALID,18.3246,VALID,210,VALID,0.815584,
2000-02-29, 00:25:00,VALID,0,VALID,97.5066,VALID,0,VALID,18.3278,VALID,198,VALID,0.747613,
2000-02-29, 00:26:00,VALID,0,VALID,97.4914,VALID,0,VALID,18.3147,VALID,193,VALID,0.657366,
2000-02-29, 00:27:00,VALID,0,VALID,97.4024,VALID,-0.0169808,VALID,18.2916,VALID,193,VALID,0.531456,
2000-02-29, 00:28:00,VALID,0,VALID,97.3871,VALID,0,VALID,18.2561,VALID,195,VALID,0.484786,
2000-02-29, 00:29:00,VALID,0,VALID,97.2994,VALID,0,VALID,18.2245,VALID,192,VALID,0.346495,
2000-02-29, 00:30:00,VALID,0,VALID,97.0018,VALID,-0.0679233,VALID,18.1827,VALID,190,VALID,0.205181,
2000-02-29, 00:31:00,VALID,0,VALID,96.867,VALID,-0.0339617,VALID,18.1212,VALID,190,VALID,0.0565378,
2000-02-29, 00:32:00,VALID,0,VALID,96.9001,VALID,-0.0509425,VALID,18.0792,VALID,190,VALID,0,
2000-02-29, 00:33:00,VALID,0,VALID,96.7666,VALID,-0.0509425,VALID,18.0441,VALID,190,VALID,0,
2000-02-29, 00:34:00,VALID,0,VALID,96.4957,VALID,-0.0169808,VALID,17.9791,VALID,190,VALID,0,
2000-02-29, 00:35:00,VALID,0,VALID,96.6903,VALID,-0.0509425,VALID,17.944,VALID,190,VALID,0,
2000-02-29, 00:36:00,VALID,0,VALID,96.9242,VALID,-0.0169808,VALID,17.8822,VALID,190,VALID,0,
2000-02-29, 00:37:00,VALID,0,VALID,97.4049,VALID,-0.0169808,VALID,17.8723,VALID,190,VALID,0,
2000-02-29, 00:38:00,VALID,0,VALID,97.7406,VALID,-0.0509425,VALID,17.8661,VALID,198,VALID,0.536659,
2000-02-29, 00:39:00,VALID,0,VALID,98.2251,VALID,-0.0169808,VALID,17.9145,VALID,193,VALID,0.991982,
2000-02-29, 00:40:00,VALID,0,VALID,98.5341,VALID,-0.0679233,VALID,18.0019,VALID,193,VALID,0.894097,
2000-02-29, 00:41:00,VALID,0,VALID,98.2467,VALID,-0.0169808,VALID,18.0245,VALID,190,VALID,0.768527,
2000-02-29, 00:42:00,VALID,0,VALID,97.6211,VALID,-0.0339617,VALID,17.9468,VALID,196,VALID,0.561266,
2000-02-29, 00:43:00,VALID,0,VALID,96.8861,VALID,-0.0509425,VALID,17.8439,VALID,216,VALID,0.787623,
2000-02-29, 00:44:00,VALID,0,VALID,96.4283,VALID,-0.0509425,VALID,17.7369,VALID,216,VALID,0.712838,
2000-02-29, 00:45:00,VALID,0,VALID,96.9128,VALID,-0.0339617,VALID,17.7178,VALID,213,VALID,0.822368,
2000-02-29, 00:46:00,VALID,0,VALID,97.3299,VALID,-0.0339617,VALID,17.7081,VALID,216,VALID,1.06456,
2000-02-29, 00:47:00,VALID,0,VALID,97.8334,VALID,-0.0339617,VALID,17.7438,VALID,216,VALID,0.999428,
2000-02-29, 00:48:00,VALID,0,VALID,98.1513,VALID,-0.0509425,VALID,17.789,VALID,216,VALID,1.13711,
2000-02-29, 00:49:00,VALID,0,VALID,98.262,VALID,-0.0679233,VALID,17.8444,VALID,218,VALID,0.905839,
2000-02-29, 00:50:00,VALID,0,VALID,98.2899,VALID,-0.0509425,VALID,17.8794,VALID,210,VALID,1.07324,
2000-02-29, 00:51:00,VALID,0,VALID,98.2836,VALID,-0.0679233,VALID,17.9253,VALID,207,VALID,0.72678,
2000-02-29, 00:52:00,VALID,0,VALID,98.1145,VALID,-0.0339617,VALID,17.9408,VALID,200,VALID,0.708984,
2000-02-29, 00:53:01,VALID,0,VALID,97.8767,VALID,0,VALID,17.9242,VALID,207,VALID,0.545473,
2000-02-29, 00:54:01,VALID,0,VALID,97.8411,VALID,-0.0169808,VALID,17.9507,VALID,219,VALID,0.821546,
2000-02-29, 00:55:00,VALID,0,VALID,97.8779,VALID,-0.0509425,VALID,17.98,VALID,219,VALID,0.811198,
2000-02-29, 00:56:00,VALID,0,VALID,97.8258,VALID,-0.0339617,VALID,17.9961,VALID,213,VALID,1.02232,
2000-02-29, 00:57:00,VALID,0,VALID,97.8525,VALID,-0.0339617,VALID,18.0118,VALID,211,VALID,0.929071,
2000-02-29, 00:58:00,VALID,0,VALID,97.8779,VALID,-0.0339617,VALID,18.0471,VALID,210,VALID,0.966488,
2000-02-29, 00:59:00,VALID,0,VALID,97.78,VALID,-0.0509425,VALID,18.0734,VALID,218,VALID,0.897382,
2000-02-29, 01:00:00,VALID,0,VALID,97.5562,VALID,-0.0169808,VALID,18.0729,VALID,219,VALID,0.792969,
2000-02-29, 01:01:00,VALID,0,VALID,97.4596,VALID,-0.0169808,VALID,18.0766,VALID,223,VALID,0.525082,
2000-02-29, 01:02:00,VALID,0,VALID,97.0603,VALID,-0.0509425,VALID,18.0409,VALID,219,VALID,0.428544,
2000-02-29, 01:03:00,VALID,0,VALID,96.6394,VALID,-0.0339617,VALID,18.0051,VALID,224,VALID,0.581445,
2000-02-29, 01:04:00,VALID,0,VALID,96.5135,VALID,-0.0679233,VALID,17.9636,VALID,227,VALID,0.640625,
2000-02-29, 01:05:00,VALID,0,VALID,96.6051,VALID,-0.0679233,VALID,17.9445,VALID,231,VALID,0.556836,
2000-02-29, 01:06:00,VALID,0,VALID,96.8925,VALID,-0.0509425,VALID,17.915,VALID,214,VALID,0.755208,
2000-02-29, 01:07:00,VALID,0,VALID,96.9522,VALID,-0.0679233,VALID,17.8855,VALID,211,VALID,0.647852,
2000-02-29, 01:08:00,VALID,0,VALID,96.7882,VALID,-0.0169808,VALID,17.8407,VALID,221,VALID,0.375,
2000-02-29, 01:09:00,VALID,0,VALID,96.6928,VALID,-0.0339617,VALID,17.7925,VALID,223,VALID,0.298109,
2000-02-29, 01:10:00,VALID,0,VALID,96.6496,VALID,-0.0339617,VALID,17.7441,VALID,237,VALID,0.389757,
2000-02-29, 01:11:00,VALID,0,VALID,96.7653,VALID,-0.0679233,VALID,17.6952,VALID,235,VALID,0.620536,
2000-02-29, 01:12:00,VALID,0,VALID,96.8518,VALID,-0.0509425,VALID,17.6603,VALID,227,VALID,0.940378,
2000-02-29, 01:13:00,VALID,0,VALID,96.8492,VALID,-0.0339617,VALID,17.6022,VALID,228,VALID,1.02734,
2000-02-29, 01:14:00,VALID,0,VALID,96.9141,VALID,-0.0679233,VALID,17.5082,VALID,223,VALID,1.19257,
2000-02-29, 01:15:01,VALID,0,VALID,97.1862,VALID,-0.0849042,VALID,17.4408,VALID,225,VALID,1.21012,
2000-02-29, 01:16:00,VALID,0,VALID,97.4736,VALID,-0.0509425,VALID,17.3726,VALID,224,VALID,1.12294,
2000-02-29, 01:17:00,VALID,0,VALID,97.6338,VALID,-0.0679233,VALID,17.3087,VALID,223,VALID,1.07489,
2000-02-29, 01:18:00,VALID,0,VALID,97.7838,VALID,-0.0169808,VALID,17.2404,VALID,217,VALID,0.888281,
2000-02-29, 01:19:00,VALID,0,VALID,97.883,VALID,-0.0339617,VALID,17.1688,VALID,221,VALID,0.653988,
2000-02-29, 01:20:00,VALID,0,VALID,97.967,VALID,-0.0509425,VALID,17.1111,VALID,220,VALID,0.729492,
2000-02-29, 01:21:00,VALID,0,VALID,98.0318,VALID,-0.0679233,VALID,17.0698,VALID,201,VALID,0.824002,
2000-02-29, 01:22:00,VALID,0,VALID,97.9987,VALID,-0.0509425,VALID,16.9977,VALID,193,VALID,1.21758,
2000-02-29, 01:23:00,VALID,0,VALID,97.7686,VALID,0,VALID,16.9594,VALID,197,VALID,1.08594,
2000-02-29, 01:24:00,VALID,0,VALID,96.9522,VALID,-0.0339617,VALID,16.9142,VALID,197,VALID,1.47677,
2000-02-29, 01:25:00,VALID,0,VALID,95.3271,VALID,-0.0169808,VALID,16.9308,VALID,199,VALID,1.36892,
2000-02-29, 01:26:00,VALID,0,VALID,93.7134,VALID,-0.0339617,VALID,17.0046,VALID,201,VALID,1.26942,
2000-02-29, 01:27:00,VALID,0,VALID,92.3249,VALID,-0.0339617,VALID,17.1012,VALID,204,VALID,1.28002,
2000-02-29, 01:28:00,VALID,0,VALID,92.082,VALID,-0.0169808,VALID,17.1886,VALID,209,VALID,1.07792,
2000-02-29, 01:29:00,VALID,0,VALID,91.937,VALID,-0.0339617,VALID,17.2181,VALID,198,VALID,1.05511,
2000-02-29, 01:30:00,VALID,0,VALID,91.6776,VALID,-0.0169808,VALID,17.2148,VALID,189,VALID,1.32011,
2000-02-29, 01:31:00,VALID,0,VALID,91.478,VALID,-0.0169808,VALID,17.2148,VALID,192,VALID,1.41859,
2000-02-29, 01:32:00,VALID,0,VALID,91.6395,VALID,-0.0169808,VALID,17.2116,VALID,179,VALID,1.30011,
2000-02-29, 01:33:00,VALID,0,VALID,92.0693,VALID,-0.0169808,VALID,17.1761,VALID,184,VALID,1.27305,
2000-02-29, 01:34:00,VALID,0,VALID,92.204,VALID,-0.0169808,VALID,17.1535,VALID,179,VALID,1.24589,
2000-02-29, 01:35:00,VALID,0,VALID,92.2066,VALID,0,VALID,17.1373,VALID,181,VALID,1.18984,
2000-02-29, 01:36:00,VALID,0,VALID,91.8722,VALID,-0.0169808,VALID,17.1021,VALID,189,VALID,1.47396,
2000-02-29, 01:37:00,VALID,0,VALID,91.5492,VALID,0,VALID,17.0504,VALID,188,VALID,1.57012,
2000-02-29, 01:38:01,VALID,0,VALID,91.1817,VALID,0,VALID,17.0439,VALID,189,VALID,1.52764,
2000-02-29, 01:39:00,VALID,0,VALID,90.8104,VALID,0,VALID,17.0861,VALID,189,VALID,1.53392,
2000-02-29, 01:40:00,VALID,0,VALID,90.7862,VALID,-0.0339617,VALID,17.1053,VALID,185,VALID,1.31836,
2000-02-29, 01:41:00,VALID,0,VALID,90.9185,VALID,0,VALID,17.1087,VALID,181,VALID,1.17031,
2000-02-29, 01:42:00,VALID,0,VALID,90.968,VALID,0,VALID,17.0668,VALID,171,VALID,0.977179,
2000-02-29, 01:43:00,VALID,0,VALID,91.3737,VALID,-0.0169808,VALID,17.0087,VALID,168,VALID,1.07813,
2000-02-29, 01:44:00,VALID,0,VALID,91.6674,VALID,-0.0169808,VALID,16.9437,VALID,169,VALID,0.790329,
2000-02-29, 01:45:00,VALID,0,VALID,91.6064,VALID,-0.0339617,VALID,16.8275,VALID,148,VALID,0.527961,
2000-02-29, 01:46:00,VALID,0,VALID,91.9764,VALID,0,VALID,16.6895,VALID,146,VALID,0.225123,
2000-02-29, 01:47:00,VALID,0,VALID,92.6784,VALID,0,VALID,16.5666,VALID,145,VALID,0,
2000-02-29, 01:48:00,VALID,0,VALID,93.0547,VALID,-0.0509425,VALID,16.486,VALID,145,VALID,0,
2000-02-29, 01:49:01,VALID,0,VALID,93.3803,VALID,-0.0169808,VALID,16.4145,VALID,145,VALID,0,
2000-02-29, 01:50:00,VALID,0,VALID,93.8266,VALID,-0.0339617,VALID,16.3796,VALID,145,VALID,0,
2000-02-29, 01:51:00,VALID,0,VALID,94.278,VALID,-0.0169808,VALID,16.3377,VALID,145,VALID,0,
2000-02-29, 01:52:00,VALID,0,VALID,94.4357,VALID,-0.0679233,VALID,16.3022,VALID,145,VALID,0,
2000-02-29, 01:53:00,VALID,0,VALID,94.7689,VALID,-0.0679233,VALID,16.2861,VALID,145,VALID,0,
2000-02-29, 01:54:00,VALID,0,VALID,95.1453,VALID,-0.0169808,VALID,16.302,VALID,145,VALID,0,
2000-02-29, 01:55:00,VALID,0,VALID,94.7485,VALID,0.0679233,VALID,16.3167,VALID,146,VALID,0,
2000-02-29, 01:56:00,VALID,0,VALID,94.9355,VALID,0.0849042,VALID,16.33,VALID,211,VALID,0,
2000-02-29, 01:57:00,VALID,0,VALID,95.0181,VALID,0.0679233,VALID,16.3167,VALID,221,VALID,0,
2000-02-29, 01:58:00,VALID,0,VALID,94.7129,VALID,0.0849042,VALID,16.3104,VALID,221,VALID,0,
2000-02-29, 01:59:00,VALID,0,VALID,94.5565,VALID,0.0509425,VALID,16.3143,VALID,228,VALID,0,
2000-02-29, 02:00:01,VALID,0,VALID,94.5832,VALID,0.0509425,VALID,16.2913,VALID,245,VALID,0.387747,
2000-02-29, 02:01:00,VALID,0,VALID,94.6582,VALID,0.0679233,VALID,16.2818,VALID,248,VALID,0.449013,
2000-02-29, 02:02:00,VALID,0,VALID,94.2615,VALID,0,VALID,16.2435,VALID,216,VALID,0.435594,
2000-02-29, 02:03:00,VALID,0,VALID,94.4561,VALID,0.0339617,VALID,16.1985,VALID,187,VALID,0.800195,
2000-02-29, 02:04:00,VALID,0,VALID,94.0606,VALID,0,VALID,16.1761,VALID,178,VALID,0.914885,
2000-02-29, 02:05:00,VALID,0,VALID,93.6982,VALID,0,VALID,16.1856,VALID,178,VALID,0.922852,
2000-02-29, 02:06:00,VALID,0,VALID,93.641,VALID,0.0339617,VALID,16.1789,VALID,178,VALID,0.83355,
2000-02-29, 02:07:00,VALID,0,VALID,93.3536,VALID,0.0169808,VALID,16.1531,VALID,188,VALID,0.738086,
2000-02-29, 02:08:00,VALID,0,VALID,93.3765,VALID,0.0169808,VALID,16.1533,VALID,187,VALID,0.678486,
2000-02-29, 02:09:00,VALID,0,VALID,93.6715,VALID,0.0169808,VALID,16.0918,VALID,190,VALID,0.724301,
2000-02-29, 02:10:00,VALID,0,VALID,93.8381,VALID,0,VALID,16.0273,VALID,214,VALID,0.618924,
2000-02-29, 02:11:01,VALID,0,VALID,94.0428,VALID,0,VALID,15.9791,VALID,236,VALID,0.728125,
2000-02-29, 02:12:00,VALID,0,VALID,94.6137,VALID,0.0339617,VALID,15.9633,VALID,225,VALID,0.909951,
2000-02-29, 02:13:00,VALID,0,VALID,95.4492,VALID,0.0169808,VALID,15.9665,VALID,220,VALID,1.17188,
2000-02-29, 02:14:00,VALID,0,VALID,96.1091,VALID,0,VALID,15.9893,VALID,218,VALID,1.13872,
2000-02-29, 02:15:00,VALID,0,VALID,96.6445,VALID,0,VALID,15.9889,VALID,214,VALID,1.147,
2000-02-29, 02:16:00,VALID,0,VALID,97.059,VALID,0.0679233,VALID,16.0087,VALID,220,VALID,1.28845,
2000-02-29, 02:17:00,VALID,0,VALID,97.2371,VALID,0,VALID,16.0117,VALID,218,VALID,1.16768,
2000-02-29, 02:18:00,VALID,0,VALID,97.1722,VALID,0,VALID,15.9857,VALID,219,VALID,0.994922,
2000-02-29, 02:19:00,VALID,0,VALID,97.0323,VALID,0,VALID,15.9607,VALID,210,VALID,0.750411,
2000-02-29, 02:20:00,VALID,0,VALID,96.8289,VALID,0,VALID,15.9183,VALID,217,VALID,0.87168,
2000-02-29, 02:21:00,VALID,0,VALID,95.8917,VALID,0.0169808,VALID,15.8923,VALID,189,VALID,1.60243,
2000-02-29, 02:22:01,VALID,0,VALID,94.6036,VALID,0.0169808,VALID,15.9571,VALID,194,VALID,1.70664,
2000-02-29, 02:23:00,VALID,0,VALID,93.6168,VALID,0,VALID,16.0246,VALID,201,VALID,1.11879,
2000-02-29, 02:24:00,VALID,0,VALID,92.7725,VALID,0,VALID,16.0573,VALID,199,VALID,1.24054,
2000-02-29, 02:25:00,VALID,0,VALID,92.1519,VALID,0.0169808,VALID,16.0761,VALID,195,VALID,1.13151,
2000-02-29, 02:26:00,VALID,0,VALID,91.3508,VALID,0,VALID,16.1087,VALID,193,VALID,1.50312,
2000-02-29, 02:27:00,VALID,0,VALID,90.9401,VALID,0,VALID,16.1475,VALID,188,VALID,1.37192,
2000-02-29, 02:28:00,VALID,0,VALID,90.4798,VALID,0.0169808,VALID,16.1636,VALID,185,VALID,1.41817,
2000-02-29, 02:29:00,VALID,0,VALID,90.3971,VALID,0,VALID,16.1604,VALID,186,VALID,1.45313,
2000-02-29, 02:30:00,VALID,0,VALID,90.1199,VALID,0,VALID,16.1604,VALID,184,VALID,1.55757,
2000-02-29, 02:31:00,VALID,0,VALID,89.9737,VALID,0,VALID,16.1896,VALID,185,VALID,1.21669,
2000-02-29, 02:32:00,VALID,0,VALID,90.0741,VALID,0,VALID,16.1866,VALID,180,VALID,1.28011,
2000-02-29, 02:33:01,VALID,0,VALID,89.9469,VALID,0.0339617,VALID,16.1701,VALID,178,VALID,1.35625,
2000-02-29, 02:34:00,VALID,0,VALID,89.8147,VALID,-0.0169808,VALID,16.1668,VALID,184,VALID,1.42928,
2000-02-29, 02:35:00,VALID,0,VALID,89.7727,VALID,0.0169808,VALID,16.1931,VALID,182,VALID,1.2875,
2000-02-29, 02:36:00,VALID,0,VALID,90.1618,VALID,0,VALID,16.1931,VALID,185,VALID,1.27496,
2000-02-29, 02:37:00,VALID,0,VALID,90.3615,VALID,0,VALID,16.18,VALID,192,VALID,1.38008,
2000-02-29, 02:38:00,VALID,0,VALID,90.3691,VALID,0,VALID,16.1636,VALID,194,VALID,1.36899,
2000-02-29, 02:39:00,VALID,0,VALID,90.1186,VALID,0,VALID,16.1739,VALID,193,VALID,1.40913,
2000-02-29, 02:40:00,VALID,0,VALID,89.9457,VALID,0,VALID,16.2159,VALID,193,VALID,1.45399,
2000-02-29, 02:41:00,VALID,0,VALID,89.9139,VALID,-0.0169808,VALID,16.2447,VALID,184,VALID,1.30089,
2000-02-29, 02:42:00,VALID,0,VALID,89.7092,VALID,0,VALID,16.2903,VALID,179,VALID,1.26357,
2000-02-29, 02:43:00,VALID,0,VALID,89.2488,VALID,0,VALID,16.3284,VALID,179,VALID,1.15296,
2000-02-29, 02:44:00,VALID,0,VALID,88.8254,VALID,0,VALID,16.3542,VALID,181,VALID,1.21389,
2000-02-29, 02:45:00,VALID,0,VALID,88.4744,VALID,0,VALID,16.3801,VALID,177,VALID,1.38014,
2000-02-29, 02:46:00,VALID,0,VALID,87.7789,VALID,0,VALID,16.4317,VALID,174,VALID,1.53331,
2000-02-29, 02:47:00,VALID,0,VALID,87.124,VALID,0,VALID,16.493,VALID,173,VALID,1.53087,
2000-02-29, 02:48:00,VALID,0,VALID,86.534,VALID,0,VALID,16.5701,VALID,177,VALID,1.48008,
2000-02-29, 02:49:00,VALID,0,VALID,85.7748,VALID,0.0169808,VALID,16.6381,VALID,177,VALID,1.39391,
2000-02-29, 02:50:00,VALID,0,VALID,85.2128,VALID,0.0169808,VALID,16.7127,VALID,176,VALID,1.29336,
2000-02-29, 02:51:00,VALID,0,VALID,84.7741,VALID,0,VALID,16.7577,VALID,182,VALID,1.41471,
2000-02-29, 02:52:00,VALID,0,VALID,84.3888,VALID,0,VALID,16.7969,VALID,182,VALID,1.34922,
2000-02-29, 02:53:01,VALID,0,VALID,84.5655,VALID,0,VALID,16.7801,VALID,180,VALID,1.27925,
2000-02-29, 02:54:01,VALID,0,VALID,84.3913,VALID,0,VALID,16.7448,VALID,177,VALID,1.14864,
2000-02-29, 02:55:00,VALID,0,VALID,84.2285,VALID,0,VALID,16.7093,VALID,182,VALID,1.16211,
2000-02-29, 02:56:00,VALID,0,VALID,84.254,VALID,0,VALID,16.6734,VALID,175,VALID,1.10513,
2000-02-29, 02:57:00,VALID,0,VALID,83.6093,VALID,0,VALID,16.6379,VALID,180,VALID,1.35424,
2000-02-29, 02:58:00,VALID,0,VALID,83.5126,VALID,0.0339617,VALID,16.6447,VALID,182,VALID,1.21608,
2000-02-29, 02:59:00,VALID,0,VALID,83.7708,VALID,-0.0169808,VALID,16.6351,VALID,175,VALID,1.29223,
2000-02-29, 03:00:00,VALID,0,VALID,83.856,VALID,0,VALID,16.5933,VALID,179,VALID,1.2537,
2000-02-29, 03:01:00,VALID,0,VALID,84.1192,VALID,0,VALID,16.5804,VALID,178,VALID,1.14803,
2000-02-29, 03:02:00,VALID,0,VALID,84.4663,VALID,-0.0509425,VALID,16.5746,VALID,191,VALID,1.28925,
2000-02-29, 03:03:00,VALID,0,VALID,84.741,VALID,-0.101885,VALID,16.552,VALID,189,VALID,1.24512,
2000-02-29, 03:04:00,VALID,0,VALID,85.1517,VALID,-0.0849042,VALID,16.5449,VALID,193,VALID,1.2648,
2000-02-29, 03:05:00,VALID,0,VALID,86.1105,VALID,-0.101885,VALID,16.5683,VALID,192,VALID,1.25781,
2000-02-29, 03:06:00,VALID,0,VALID,87.5716,VALID,-0.101885,VALID,16.6008,VALID,193,VALID,1.38563,
2000-02-29, 03:07:00,VALID,0,VALID,88.1413,VALID,-0.101885,VALID,16.6073,VALID,190,VALID,1.35547,
2000-02-29, 03:08:00,VALID,0,VALID,88.4592,VALID,-0.101885,VALID,16.5655,VALID,193,VALID,1.30849,
2000-02-29, 03:09:00,VALID,0,VALID,88.9284,VALID,-0.0849042,VALID,16.4747,VALID,195,VALID,1.11883,
2000-02-29, 03:10:00,VALID,0,VALID,89.6354,VALID,-0.101885,VALID,16.3845,VALID,191,VALID,1.08355,
2000-02-29, 03:11:00,VALID,0,VALID,90.3907,VALID,-0.0849042,VALID,16.2681,VALID,186,VALID,1.11116,
2000-02-29, 03:12:00,VALID,0,VALID,91.5911,VALID,-0.118866,VALID,16.1584,VALID,191,VALID,0.99815,
2000-02-29, 03:13:00,VALID,0,VALID,92.129,VALID,-0.101885,VALID,16.071,VALID,192,VALID,1.03701,
2000-02-29, 03:14:00,VALID,0,VALID,92.4863,VALID,-0.135847,VALID,16.0101,VALID,197,VALID,0.977407,
2000-02-29, 03:15:01,VALID,0,VALID,92.4546,VALID,-0.101885,VALID,15.9651,VALID,212,VALID,0.672903,
2000-02-29, 03:16:00,VALID,0,VALID,92.7547,VALID,-0.101885,VALID,15.9097,VALID,208,VALID,0.707648,
2000-02-29, 03:17:00,VALID,0,VALID,93.819,VALID,-0.101885,VALID,15.878,VALID,200,VALID,1.01677,
2000-02-29, 03:18:00,VALID,0,VALID,94.5832,VALID,-0.0849042,VALID,15.8681,VALID,201,VALID,1.02969,
2000-02-29, 03:19:00,VALID,0,VALID,94.8096,VALID,-0.101885,VALID,15.8134,VALID,193,VALID,1.4227,
2000-02-29, 03:20:00,VALID,0,VALID,96.0952,VALID,-0.101885,VALID,15.7971,VALID,193,VALID,1.56445,
2000-02-29, 03:21:00,VALID,0,VALID,96.2477,VALID,-0.101885,VALID,15.8062,VALID,194,VALID,1.23394,
2000-02-29, 03:22:00,VALID,0,VALID,96.1219,VALID,-0.0849042,VALID,15.8068,VALID,194,VALID,1.14004,
2000-02-29, 03:23:00,VALID,0,VALID,96.3622,VALID,-0.101885,VALID,15.8098,VALID,194,VALID,1.40705,
2000-02-29, 03:24:00,VALID,0,VALID,96.9446,VALID,-0.0509425,VALID,15.8615,VALID,185,VALID,1.38302,
2000-02-29, 03:25:00,VALID,0,VALID,96.9166,VALID,-0.101885,VALID,15.8808,VALID,178,VALID,1.2105,
2000-02-29, 03:26:00,VALID,0,VALID,96.3228,VALID,-0.101885,VALID,15.8453,VALID,167,VALID,1.33259,
2000-02-29, 03:27:00,VALID,0,VALID,96.7475,VALID,-0.0849042,VALID,15.8229,VALID,166,VALID,1.26439,
2000-02-29, 03:28:00,VALID,0,VALID,96.9865,VALID,-0.118866,VALID,15.804,VALID,166,VALID,1.24979,
2000-02-29, 03:29:00,VALID,0,VALID,97.5092,VALID,-0.101885,VALID,15.804,VALID,174,VALID,1.29012,
2000-02-29, 03:30:00,VALID,0,VALID,97.9504,VALID,-0.101885,VALID,15.862,VALID,177,VALID,1.29235,
2000-02-29, 03:31:00,VALID,0,VALID,98.0204,VALID,-0.0849042,VALID,15.8681,VALID,184,VALID,1.23972,
2000-02-29, 03:32:00,VALID,0,VALID,98.145,VALID,-0.0339617,VALID,15.9258,VALID,186,VALID,1.34566,
2000-02-29, 03:33:00,VALID,0,VALID,98.145,VALID,0,VALID,15.9482,VALID,189,VALID,1.44199,
2000-02-29, 03:34:00,VALID,0,VALID,98.2543,VALID,0,VALID,15.9538,VALID,187,VALID,1.50802,
2000-02-29, 03:35:00,VALID,0,VALID,98.3243,VALID,0,VALID,15.9801,VALID,193,VALID,1.48496,
2000-02-29, 03:36:00,VALID,0,VALID,98.2887,VALID,-0.101885,VALID,15.9744,VALID,194,VALID,1.54796,
2000-02-29, 03:37:00,VALID,0,VALID,98.4769,VALID,-0.101885,VALID,16.0168,VALID,192,VALID,1.53555,
2000-02-29, 03:38:01,VALID,0,VALID,98.454,VALID,-0.118866,VALID,16.0587,VALID,190,VALID,1.63802,
2000-02-29, 03:39:00,VALID,0,VALID,98.6078,VALID,-0.101885,VALID,16.1134,VALID,192,VALID,1.69819,
2000-02-29, 03:40:00,VALID,0,VALID,98.7643,VALID,-0.101885,VALID,16.1878,VALID,192,VALID,1.70074,
2000-02-29, 03:41:00,VALID,0,VALID,98.7108,VALID,-0.101885,VALID,16.2425,VALID,193,VALID,1.56964,
2000-02-29, 03:42:00,VALID,0,VALID,98.454,VALID,-0.101885,VALID,16.2262,VALID,196,VALID,1.20888,
2000-02-29, 03:43:00,VALID,0,VALID,98.515,VALID,-0.0509425,VALID,16.2425,VALID,197,VALID,1.29544,
2000-02-29, 03:44:00,VALID,0,VALID,98.604,VALID,-0.0679233,VALID,16.2808,VALID,205,VALID,1.26921,
2000-02-29, 03:45:00,VALID,0,VALID,98.6358,VALID,-0.101885,VALID,16.3062,VALID,201,VALID,1.47225,
2000-02-29, 03:46:00,VALID,0,VALID,98.5621,VALID,-0.0679233,VALID,16.3393,VALID,194,VALID,1.294,
2000-02-29, 03:47:00,VALID,0,VALID,98.7693,VALID,-0.0169808,VALID,16.4192,VALID,178,VALID,1.50705,
2000-02-29, 03:48:00,VALID,0,VALID,98.6587,VALID,0.0339617,VALID,16.4545,VALID,171,VALID,1.51406,
2000-02-29, 03:49:00,VALID,0,VALID,98.59,VALID,0.0679233,VALID,16.5023,VALID,175,VALID,1.40275,
2000-02-29, 03:50:00,VALID,0,VALID,98.1806,VALID,0.0169808,VALID,16.4735,VALID,170,VALID,1.41191,
2000-02-29, 03:51:00,VALID,0,VALID,98.0941,VALID,0.0339617,VALID,16.5029,VALID,170,VALID,1.30838,
2000-02-29, 03:52:00,VALID,0,VALID,97.7165,VALID,0.0509425,VALID,16.4735,VALID,167,VALID,1.22051,
2000-02-29, 03:53:00,VALID,0,VALID,97.5257,VALID,0.0339617,VALID,16.4575,VALID,172,VALID,1.22356,
2000-02-29, 03:54:00,VALID,0,VALID,97.4914,VALID,0.0339617,VALID,16.461,VALID,186,VALID,1.39063,
2000-02-29, 03:55:00,VALID,0,VALID,97.5562,VALID,0.0169808,VALID,16.4704,VALID,180,VALID,1.41471,
2000-02-29, 03:56:00,VALID,0,VALID,97.3401,VALID,0.0339617,VALID,16.4739,VALID,198,VALID,1.06071,
2000-02-29, 03:57:00,VALID,0,VALID,97.2167,VALID,0.0169808,VALID,16.4737,VALID,212,VALID,1.08594,
2000-02-29, 03:58:00,VALID,0,VALID,97.2828,VALID,0.0849042,VALID,16.4993,VALID,206,VALID,1.29461,
2000-02-29, 03:59:00,VALID,0,VALID,96.9141,VALID,0.0849042,VALID,16.4989,VALID,201,VALID,0.819046,
2000-02-29, 04:00:01,VALID,0,VALID,96.8378,VALID,0.0509425,VALID,16.496,VALID,203,VALID,1.05058,
2000-02-29, 04:01:00,VALID,0,VALID,97.0005,VALID,0.0849042,VALID,16.5186,VALID,205,VALID,1.25103,
2000-02-29, 04:02:00,VALID,0,VALID,96.6089,VALID,-0.0169808,VALID,16.4993,VALID,203,VALID,0.990282,
2000-02-29, 04:03:00,VALID,0,VALID,96.5542,VALID,-0.0679233,VALID,16.5066,VALID,193,VALID,0.954492,
2000-02-29, 04:04:00,VALID,0,VALID,96.5466,VALID,-0.0339617,VALID,16.516,VALID,184,VALID,0.81065,
2000-02-29, 04:05:00,VALID,0,VALID,96.4334,VALID,-0.0849042,VALID,16.5165,VALID,187,VALID,0.969531,
2000-02-29, 04:06:00,VALID,0,VALID,96.6865,VALID,-0.0509425,VALID,16.5162,VALID,187,VALID,1.14562,